CZ-6A DEB, 60962

Orbit data source: Space-Track

CZ-6A DEB, 60962 is space debris in LEO originally from a launch on Tue, 06 Aug 2024 UTC launched from the Taiyaun Space Center, China (TSC). Debris objects in space refer to the collection of defunct objects orbiting the Earth. Examples of debris include non-operational satellites, rocket bodies, and fragments generated from explosions, collisions, or faulty payload assembly.

Loading next visibility...
Identifier
60962, 2024-140LM
Orbit
LEO
Country
Flag of CNCN / PRC
Related business
Manufacturer
SAST
Mission
Spacecraft
Bus & Motor
Unknown
Mass
Unknown
Launch date (UTC)
2024-08-06 (2 years ago)
Launch vehicle
Unknown
Launch site
Taiyaun Space Center, China (TSC)
Object type
Payload
Rocket body
Debris
Shape & HBR
Unknown shape, 0.1 m
Radar Cross Section
Small (<0.1 m²)

Expand to show TLE details & history
Last TLE update: 16 hours ago

TLE from 16 hours ago
0 CZ-6A DEB
1 60962U 24140LM  26118.46101185  .00001011  00000-0  44368-3 0  9999
2 60962  89.0170 281.6984 0041617 322.7552  37.0754 14.22466423 87480
Epoch: 2026-04-28T11:03Z
TLE epoch observation values (Epoch: 2026-04-28T11:03:51.423Z)
Latitude
-0.00008°
Longitude
-100.70186°
Altitude
796.23 km
Speed
7.468 km/s
True Right ascension
18h 46m 47s
True Declination
0° 00' 00"
Sunlit
Object was in daylight at epoch
Visualization orbit readout
Latitude
Unknown
Longitude
Unknown
Altitude
Unknown
Speed
Unknown
Apparent Right ascension
Unknown
Apparent Declination
Unknown
Sunlit
N/A
Visualization observer readout
Local Sidereal Time
10:58:52
Azimuth
Unknown
Elevation
Unknown
Doppler factor
Unknown
Orbital elements
Apogee altitude
843.903 km
Perigee altitude
784.04 km
Semi-major axis
7,192.108 km
Eccentricity
0.00416
Inclination
89.017°
RAAN
281.6984°
Arg. of periapsis
322.7552°
True anomaly
37.3641°
Mean anomaly
37.0754°
Eccentric anomaly
37.21963°
Mean motion
3.55843 °/min
Orbital period
101.17 mins
BSTAR
0.00044368
Loading maneuver chart data...
Computing Atmospheric mass density...
Loading historical data...
Loading historical data...
Loading historical data...
Loading historical data...
Loading historical data...
Loading historical data...
Loading historical data...

Documentation

Showing up to 5 results
|